Flag for U.S.A. Weather past 2 weeks in Gloucester, Massachusetts, U.S.A.

Now
22 °F

Clear.


Feels Like: 17 °F
Forecast: 18 / 29 °F
Wind: 3 mph from Southwest

Location: Beverly Municipal Airport

Current Time: Feb 28, 2015 at 8:33:08 PM

Latest Report: Feb 28, 2015 at 7:53 PM


Visibility: 10 mi

Pressure: 30.68 "Hg

Humidity: 38%

Dew point: 0 °F

Location of GloucesterLocation

Historic Weather in Gloucester — Graph

°F

Gloucester temperature yesterday

Maximum temperature yesterday: 26 °F (at 3:53 PM)
Minimum temperature yesterday: 8 °F (at 9:53 PM)
Average temperature yesterday: 17 °F

Past Weeks' High & Low Weather Summary

 TemperatureHumidityPressure
High38 °F (Feb 22, 3:53 PM)96% (Feb 22, 11:00 PM)30.72 "Hg (Feb 22, 11:00 PM)
Low-7 °F (Feb 14, 4:53 AM)23% (Feb 27, 3:53 PM)29.30 "Hg (Feb 15, 4:53 AM)
Average17 °F56%30.00 "Hg
* Reported Feb 13 6:53 PM — Feb 28 6:53 PM, Gloucester, Weather by CustomWeather, © 2015

Note: Actual official high and low records may vary slightly from our data, if they occured in-between our weather recording intervals... More about our weather records

Advertising

Gloucester weather history for previous 24 hours

 ConditionsComfort  
Time TempWeatherWind HumidityBarometerVisibility
6:53 PM
Sat, Feb 28
21 °FClear.5 mph40%30.67 "Hg10 mi
5:53 PM25 °FClear.3 mph32%30.66 "Hg10 mi
4:53 PM27 °FSunny.9 mph31%30.65 "Hg10 mi
3:53 PM29 °FSunny.9 mph26%30.66 "Hg10 mi
2:53 PM27 °FSunny.8 mph32%30.67 "Hg10 mi
1:53 PM27 °FSunny.9 mph23%30.68 "Hg10 mi
12:53 PM26 °FSunny.8 mph29%30.69 "Hg10 mi
11:53 AM23 °FSunny.9 mph32%30.71 "Hg10 mi
10:53 AM21 °FSunny.9 mph34%30.72 "Hg10 mi
9:53 AM19 °FSunny.5 mph38%30.72 "Hg10 mi
8:53 AM15 °FSunny.6 mph46%30.72 "Hg10 mi
7:53 AM10 °FSunny.8 mph53%30.71 "Hg10 mi
6:53 AM6 °FSunny.6 mph60%30.69 "Hg10 mi
5:53 AM7 °FClear.7 mph57%30.65 "Hg10 mi
4:53 AM7 °FClear.7 mph57%30.61 "Hg10 mi
3:53 AM8 °FClear.5 mph54%30.61 "Hg10 mi
2:53 AM8 °FClear.5 mph52%30.57 "Hg10 mi
1:53 AM8 °FClear.5 mph49%30.57 "Hg10 mi
12:53 AM12 °FClear.5 mph44%30.54 "Hg10 mi
11:53 PM
Fri, Feb 27
14 °FClear.7 mph38%30.52 "Hg10 mi
10:53 PM15 °FClear.5 mph38%30.50 "Hg10 mi
9:53 PM8 °FClear.3 mph49%30.48 "Hg10 mi
8:53 PM11 °FClear.5 mph48%30.45 "Hg10 mi
Weather by CustomWeather, © 2015

See weather overviewHow to use our weather pages